Location: Forli
(44.2227°N, 12.0407°E)
Time: 04:34:11
(UTC+01:00)

ARIANE 6 FM1 Upper Stage - Pass Details

Date: 17 February 2026
Orbit: 523 x 607 km, 62.0° (Epoch: 6 March)

Event Time Altitude Azimuth Distance (km) Brightness Sun altitude
Rises 20:17:32 0° 309° (NW) 2,657 7.0 -28.1°
Reaches altitude 10° 20:20:03 10° 294° (WNW) 1,767 6.1 -28.5°
Maximum altitude 20:23:11 23° 242° (WSW) 1,163 4.7 -29.1°
Enters shadow 20:23:17 23° 239° (WSW) 1,164 4.7 -29.1°
